Location: Unspecified
(0.0000°N, 0.0000°E)
Time: 09:12:58
(UTC+00:00)

Explorer 7 - Pass Details

Date: 06 August 2025
Orbit: 428 x 537 km, 50.2° (Epoch: 20 April)

Event Time Altitude Azimuth Distance (km) Brightness Sun altitude
Rises 04:20:41 0° 344° (NNW) 2,686 10.4 -25.1°
Reaches altitude 10° 04:23:16 10° 358° (N) 1,781 9.6 -24.5°
Maximum altitude 04:26:32 23° 52° (NE) 1,139 9.1 -23.7°
Drops below altitude 10° 04:29:43 10° 106° (ESE) 1,735 10.1 -23.0°
Sets 04:32:12 0° 121° (ESE) 2,597 10.9 -22.4°
